Lid_Strength_Index
-1 -1 -2 -1 -2 -1 -0 -1 -1 -1 -1 -1 -1 -1 -1 -1 -1 -1 -1 -2 -2 -1 -1 -1 -1 -1 -1 -1 -1 -1 -1 -1 -1 -1 -1 -1 -1 -1 -1 -1 -1 -1 -1
-1 -1 -1 -1 -1 -1 -1 -1 -2 -1 -1 -1 -1 -1 -1 -1 -2 -2 -1 -2 -2 -2 -1 -1 -2 -2 -1 -2 -1 -1 -1 -1 -1 -1 -1 -1 -1 -1 -1 -1 -1 -1 -1
-2 -1 -1 -0 -1 -2 -2 -2 -2 -0 -0 -1 -1 -2 -1 -1 -1 -2 -1 -1 -2 -2 -2 -2 -2 -2 -2 -2 -2 -1 -1 -1 -1 -1 -1 -1 -1 -1 -1 -1 -1 -1 -1
-2 -1 -1 -1 -1 -2 -1 -0 -1 -0 -0 -0 -0 -1 -1 -1 -2 -1 -1 -2 -1 -1 -2 -2 -1 -2 -1 -1 -1 -1 -1 -1 -1 -1 -1 -1 -1 -1 -1 -1 -1 -1 -1
-2 -1 -1 -1 -2 -1 -1 -1 -0 -1 -0 -0 -0 -1 -1 -1 -1 -1 -1 -2 -2 -1 -1 -2 -2 -2 -1 -1 -1 -1 -1 -1 -1 -1 -1 -1 -1 -1 -1 -1 -1 -1 -1
-2 -1 -1 -1 -1 -0 -0 -1 -0 -1 -0 -0 0 0 -0 -1 -1 -1 -1 -1 -2 -2 -2 -2 -2 -1 -2 -1 -1 -1 -1 -1 -1 -1 -1 -2 -2 -2 -2 -2 -2 -2 -2
-2 -2 -1 -1 -1 -1 -1 -1 -0 -0 0 -1 1 1 0 -0 -1 -1 -1 -1 -1 -1 -2 -2 -1 -1 -1 -2 -1 -1 -1 -1 -1 -1 -1 -1 -1 -1 -2 -2 -2 -2 -2
-2 -2 -1 -1 -1 -0 -1 -1 -1 1 0 -1 2 1 3 2 0 -0 -1 -1 -1 -1 -1 -1 -2 -2 -2 -1 -2 -1 -1 -1 -1 -1 -1 -1 -1 -1 -1 -1 -1 -1 -1
-2 -2 -2 -1 -1 -1 -0 -0 -0 -0 2 -0 -1 2 3 5 2 0 -0 -0 -1 -1 -1 -1 -2 -2 -2 -2 -2 -2 -2 -2 -2 -2 -2 -2 -2 -1 -2 -1 -1 -1 -1
-1 -1 -2 -2 -1 -1 -0 -0 -1 -0 -0 1 0 0 -0 1 4 4 1 0 -1 -0 -1 -1 -1 -2 -2 -2 -2 -3 -3 -3 -2 -2 -1 -1 -2 -2 -2 -2 -2 -2 -2
-1 -1 -2 -2 -1 -0 -1 -1 -1 -1 -0 1 1 1 -0 1 0 3 4 2 0 -0 -1 -1 -1 -1 -2 -2 -2 -2 -3 -2 -2 -1 -1 -0 -0 -1 -1 -1 -1 -1 -1
-0 -1 -1 -1 -1 -1 -1 -1 -1 -1 -0 -1 0 -0 1 2 2 2 3 3 2 1 -0 -1 -1 -1 -2 -2 -2 -2 -4 -3 -3 -2 -1 -0 -1 -1 -1 -1 -1 -1 -1
0 -0 -1 -1 -0 -1 -1 -1 -1 -1 -0 0 -0 0 0 0 0 1 1 2 2 1 1 -0 -1 -1 -1 -2 -2 -3 -4 -3 -3 -2 -2 -2 -2 -2 -2 -2 -2 -2 -2
-0 -1 -0 -1 -1 -1 -1 -1 -0 -0 -0 0 -0 -0 0 -0 -0 0 1 2 3 2 1 0 -1 -1 -1 -2 -2 -3 -2 -3 -3 -3 -2 -2 -2 -2 -3 -3 -3 -3 -2
-0 -1 -1 -0 -0 -1 -1 -1 -0 0 -0 -0 -0 -0 0 -0 -0 -0 -0 0 2 4 4 1 1 -2 -2 -2 -2 -2 -2 -2 -3 -2 -2 -2 -2 -2 -2 -2 -2 -3 -3
-0 -1 -0 -0 -0 -0 -1 -0 -0 -0 0 0 0 0 -0 -0 -1 -0 -0 -0 0 1 3 1 1 -1 -2 -1 -2 -2 -2 -2 -2 -2 -3 -2 -2 -2 -2 -2 -2 -2 -2
-0 -0 -0 -0 -0 -0 -0 -0 -0 -0 0 0 -0 0 0 -1 0 -0 -0 -0 0 0 2 1 -0 -1 -1 -1 -2 -2 -2 -3 -2 -0 -1 -1 -1 -2 -2 -2 -2 -2 -2
-0 -0 -0 0 0 0 -0 0 0 0 0 1 1 0 0 0 0 -1 0 -0 -0 -1 1 1 0 0 -0 -1 -1 -1 -1 -1 -2 -0 -1 -1 -1 -1 -1 -2 -2 -1 -1
0 0 0 0 0 0 0 0 0 0 0 0 0 1 0 0 1 0 0 0 0 0 0 1 1 0 -0 -0 -0 -1 -1 -2 -1 -1 -0 0 -0 -1 -1 -1 -1 -0 1
0 0 0 0 0 0 0 0 0 0 0 0 0 0 0 0 1 0 0 0 -0 1 1 1 1 1 1 -0 -0 1 1 0 0 -1 -1 -1 -1 -0 -0 0 0 1 2
0 0 0 0 0 0 0 0 0 0 1 1 0 0 0 0 1 1 1 0 0 1 1 2 2 1 1 1 2 1 2 1 1 -0 -0 -1 -1 -1 -1 0 -1 -1 0
1 1 1 1 1 1 3 4 1 1 1 1 1 1 -0 1 1 3 2 1 0 1 1 2 2 2 1 0 0 1 1 2 3 -1 -0 1 -1 -0 -1 -1 -0 -2 -1
1 1 1 1 1 1 5 5 4 0 1 1 1 1 1 0 1 0 3 2 3 2 1 0 1 1 0 -0 -0 0 1 1 2 0 -1 2 -0 0 -1 -0 -0 -1 0
1 1 1 1 1 1 5 7 5 0 1 1 0 1 1 1 0 0 0 1 0 0 0 0 0 0 -0 -1 -1 -0 -0 0 0 0 -1 2 0 0 -1 -2 -1 -0 -0
1 1 1 1 1 1 7 8 6 1 1 1 1 0 0 1 3 4 1 1 1 1 3 4 3 3 3 2 0 -0 1 2 2 2 -0 1 0 0 -0 -1 -2 -1 -1
1 1 1 1 2 1 6 9 7 1 1 1 1 0 4 1 7 7 1 1 2 2 1 1 2 2 2 1 3 -1 0 2 2 3 0 1 1 0 2 -0 -1 -1 -1